This is the latest recevied weather packets stored in our database for station/object OE3FJB-25. If no packets are shown the sender has not sent any weather packets the latest 10 day(s).
| Time | Temp. | Humidity | Pressure | Rain* | Wind** | Luminosity | Snow |
|---|---|---|---|---|---|---|---|
| 1777595129 | 5.56° C | 87% | 1030 hPa | - | - | - | - |
| 1777594531 | 5.56° C | 89% | 1030.1 hPa | - | - | - | - |
| 1777593932 | 5° C | 89% | 1030.1 hPa | - | - | - | - |
| 1777593333 | 5° C | 88% | 1030.2 hPa | - | - | - | - |
| 1777592734 | 5.56° C | 84% | 1030.3 hPa | - | - | - | - |
| 1777592136 | 5.56° C | 82% | 1030.2 hPa | - | - | - | - |
| 1777591537 | 5.56° C | 79% | 1030.1 hPa | - | - | - | - |
| 1777590938 | 5.56° C | 76% | 1030.1 hPa | - | - | - | - |
| 1777590340 | 6.11° C | 74% | 1030.2 hPa | - | - | - | - |
| 1777589741 | 5.56° C | 71% | 1030.2 hPa | - | - | - | - |
| 1777589142 | 5.56° C | 67% | 1030.2 hPa | - | - | - | - |
| 1777588543 | 6.11° C | 65% | 1030.2 hPa | - | - | - | - |
| 1777587945 | 6.11° C | 63% | 1030.2 hPa | - | - | - | - |
| 1777587346 | 6.11° C | 62% | 1030.2 hPa | - | - | - | - |
| 1777586747 | 6.11° C | 61% | 1030.2 hPa | - | - | - | - |
| 1777586149 | 6.11° C | 60% | 1030.2 hPa | - | - | - | - |
| 1777585550 | 6.11° C | 58% | 1030.2 hPa | - | - | - | - |
| 1777584951 | 6.11° C | 57% | 1030.2 hPa | - | - | - | - |
| 1777584353 | 6.11° C | 56% | 1030.1 hPa | - | - | - | - |
| 1777583754 | 6.11° C | 54% | 1030.2 hPa | - | - | - | - |
| 1777583155 | 6.11° C | 52% | 1030 hPa | - | - | - | - |
| 1777582557 | 6.11° C | 51% | 1030 hPa | - | - | - | - |
| 1777581958 | 6.11° C | 50% | 1030 hPa | - | - | - | - |
| 1777581359 | 6.11° C | 48% | 1030.1 hPa | - | - | - | - |
| 1777580760 | 6.11° C | 47% | 1030 hPa | - | - | - | - |
* Rain since midnight (hover to see other rain measurements)
** Current wind speed in m/s (hover to see current wind gust speed)